Find Starlink 4681

NORAD ID: 53594 Int'l Des: 2022-104 Owner: SPXS Country: US Constellation: starlink decayed
LEOCIRCULAR

Re-entered — Jul 2, 2026

3D地球を読み込み中...

About Starlink 4681

Starlink 4681 (NORAD 53594) is a starlink constellation satellite (v1.5) launched Aug 28, 2022 by SPXS of US. It re-entered the atmosphere on Jul 2, 2026. with a mass of 300.00 kg.

高度履歴

Loading altitude history...

軌道要素

1 53594U 22104G 26183.82197302 .10212467 12579-4 21336-3 0 9996
2 53594 53.2009 44.5146 0008853 292.8077 67.2039 16.46239423214060
Epoch: Jul 2, 2026 • Age: 1284 hours

現在のステータス

Position data unavailable
打ち上げ日 Aug 28, 2022
運用期間 3.9 years
落下予定日 Jul 2, 2026
タイプ internet

技術仕様

分類 Payload
質量 300.00 kg
乾燥質量 290.00 kg
総質量 300.00 kg
長さ 0.20 m
直径 2.80 m
スパン 9.00 m
形状 Box + pan
製造者 SPXS
バスタイプ Starlink
フェーズステータス Unknown Transfer Status
所有者/国 SPXS/US

Most Searched